Regional Weather Roundup
Issued by NWS

Home | Current Version | Previous Version | Graphics & Text | Print | Product List | Glossary On
Versions: 1 2 3 4 5 6 7 8 9 10 11 12 13 14 15 16 17 18 19 20 21 22 23 24 25 26 27 28 29 30 31 32 33 34 35 36 37 38 39 40 41 42 43 44 45 46 47 48 49 50
000
ASUS44 KMEG 270210
RWRTN
TENNESSEE HOURLY STATE WEATHER ROUNDUP
NATIONAL WEATHER SERVICE MEMPHIS TN
900 PM CDT SUN APR 26 2015

TNZ002-004-019-021-049-052-054-088>092-270300-
WEST TENNESSEE

CITY           SKY/WX    TMP DP  RH WIND       PRES   REMARKS
MEMPHIS INTL   CLOUDY    59  48  67 NE15      29.89R
NWS MEMPHIS      N/A     57 N/A N/A MISG        N/A
JACKSON        CLEAR     50  46  86 CALM      29.91R
DYERSBURG      PTCLDY    52  37  58 CALM      29.92R
UNION CITY     CLEAR     52  32  46 CALM      29.90R
PARIS          CLEAR     46  46 100 CALM      29.91R
LEXINGTON      CLEAR     48  46  93 CALM      29.90R
SAVANNAH       CLEAR     52  32  46 CALM      29.90R
$$

TNZ008-025-027-028-033-062-065-066-270300-
NORTH MIDDLE TENNESSEE

CITY           SKY/WX    TMP DP  RH WIND       PRES   REMARKS
NASHVILLE      CLEAR     53  48  83 CALM      29.88R
CLARKSVILLE    CLEAR     52  42  69 N7        29.88R
SMYRNA         CLEAR     49  48  96 CALM      29.89R
COOKEVILLE     MOCLDY    48  48 100 CALM      29.86R
CROSSVILLE     CLEAR     48  44  86 W5        29.86R
$$

TNZ061-075-076-078-094-096-097-270300-
SOUTH MIDDLE TENNESSEE

CITY           SKY/WX    TMP DP  RH WIND       PRES   REMARKS
FAYETTEVILLE   PTCLDY    48  45  87 NE3       29.88R
TULLAHOMA      CLEAR     46  45  93 CALM      29.88R
WINCHESTER     CLEAR     50  46  87 CALM      29.88R
MCMINNVILLE    CLEAR     46  46 100 CALM      29.88R
COLUMBIA       CLEAR     48  32  53 CALM      29.88R
SHELBYVILLE    CLEAR     48  48 100 CALM      29.89R
$$

TNZ017-018-042-046-047-270300-
NORTHEAST TENNESSEE

CITY           SKY/WX    TMP DP  RH WIND       PRES   REMARKS
TRI CITIES     CLOUDY    52  42  69 NE3       29.83R
ELIZABETHTON   CLOUDY    50  39  66 E3        29.83S
$$

TNZ012-013-036-069-073-074-270300-
CENTRAL EAST TENNESSEE

CITY           SKY/WX    TMP DP  RH WIND       PRES   REMARKS
KNOXVILLE      CLOUDY    55  47  74 N3        29.83R
OAK RIDGE      CLOUDY    55  46  71 CALM      29.85R
GATLINBURG     CLOUDY    54  46  76 CALM      29.84R
MORRISTOWN     CLOUDY    55  46  71 NW5       29.84R
$$

TNZ083-085-099-270300-
SOUTHEAST TENNESSEE

CITY           SKY/WX    TMP DP  RH WIND       PRES   REMARKS
CHATTANOOGA    MOCLDY    53  47  79 NW6       29.85R
$$

SKY/WX REPORTED AS FAIR MEANS FEW OR NO CLOUDS BELOW
12 THOUSAND FEET.




USA.gov is the U.S. government's official web portal to all federal, state and local government web resources and services.